Time,TemperatureF,DewpointF,PressureIn,WindDirection,WindDirectionDegrees,WindSpeedMPH,WindSpeedGustMPH,Humidity,HourlyPrecipIn,Conditions,Clouds,dailyrainin,SoftwareType,DateUTC
2013-07-19 00:00:00,71.1,51.0,30.00,SE,135,1.0,2.0,49,0.00,,CLR,0.00,VWS V14.01,2013-07-19 07:00:00,
2013-07-19 00:01:00,74.7,43.7,29.87,SSE,164,1.0,1.0,33,0.00,,CLR,0.00,VWS V14.01,2013-07-19 07:01:00,
2013-07-19 00:06:00,74.7,43.7,29.87,SSE,164,0.0,0.0,33,0.00,,CLR,0.00,VWS V14.01,2013-07-19 07:06:00,
2013-07-19 00:11:00,74.6,43.6,29.87,SSE,164,3.0,3.0,33,0.00,,CLR,0.00,VWS V14.01,2013-07-19 07:11:00,
2013-07-19 00:16:00,74.4,44.2,29.87,SSE,164,1.0,1.0,34,0.00,,CLR,0.00,VWS V14.01,2013-07-19 07:16:00,
2013-07-19 00:21:00,74.3,44.1,29.87,SSE,163,1.0,1.0,34,0.00,,CLR,0.00,VWS V14.01,2013-07-19 07:21:00,
2013-07-19 00:26:00,74.3,44.1,29.87,SSE,163,0.0,0.0,34,0.00,,CLR,0.00,VWS V14.01,2013-07-19 07:26:00,
2013-07-19 00:27:00,74.3,44.9,29.87,SSE,162,0.0,0.0,35,0.00,,CLR,0.00,VWS V14.01,2013-07-19 07:27:00,
2013-07-19 00:32:00,74.2,44.8,29.87,SSE,162,0.0,0.0,35,0.00,,CLR,0.00,VWS V14.01,2013-07-19 07:32:00,
2013-07-19 00:37:00,74.3,45.7,29.87,SSE,163,0.0,0.0,36,0.00,,CLR,0.00,VWS V14.01,2013-07-19 07:37:00,
2013-07-19 00:42:00,74.2,45.6,29.87,SSE,163,1.0,1.0,36,0.00,,CLR,0.00,VWS V14.01,2013-07-19 07:42:00,
2013-07-19 00:47:00,73.9,46.0,29.86,SSE,163,0.0,0.0,37,0.00,,CLR,0.00,VWS V14.01,2013-07-19 07:47:00,
2013-07-19 00:52:00,73.7,46.5,29.87,SSE,163,1.0,1.0,38,0.00,,CLR,0.00,VWS V14.01,2013-07-19 07:52:00,
2013-07-19 00:57:00,73.4,47.0,29.87,SSE,163,1.0,1.0,39,0.00,,CLR,0.00,VWS V14.01,2013-07-19 07:57:00,
2013-07-19 01:00:00,69.7,52.3,29.99,SE,135,2.0,7.0,54,0.00,,CLR,0.00,VWS V14.01,2013-07-19 08:00:00,
2013-07-19 01:02:00,73.2,46.8,29.87,SSE,163,3.0,3.0,39,0.00,,CLR,0.00,VWS V14.01,2013-07-19 08:02:00,
2013-07-19 01:07:00,73.0,46.6,29.87,SSE,163,1.0,1.0,39,0.00,,CLR,0.00,VWS V14.01,2013-07-19 08:07:00,
2013-07-19 01:12:00,72.8,47.1,29.87,SSE,163,1.0,1.0,40,0.00,,CLR,0.00,VWS V14.01,2013-07-19 08:12:00,
2013-07-19 01:17:00,72.6,46.9,29.87,SSE,163,0.0,0.0,40,0.00,,CLR,0.00,VWS V14.01,2013-07-19 08:17:00,
2013-07-19 01:23:00,72.5,47.5,29.87,SSE,162,3.0,3.0,41,0.00,,CLR,0.00,VWS V14.01,2013-07-19 08:23:00,
2013-07-19 01:28:00,72.5,47.5,29.87,SSE,163,2.0,2.0,41,0.00,,CLR,0.00,VWS V14.01,2013-07-19 08:28:00,
2013-07-19 01:33:00,72.6,47.6,29.86,SSE,162,2.0,2.0,41,0.00,,CLR,0.00,VWS V14.01,2013-07-19 08:33:00,
2013-07-19 01:38:00,72.5,47.5,29.87,SSE,162,1.0,1.0,41,0.00,,CLR,0.00,VWS V14.01,2013-07-19 08:38:00,
2013-07-19 01:43:00,72.4,47.4,29.87,SSE,163,1.0,1.0,41,0.00,,CLR,0.00,VWS V14.01,2013-07-19 08:43:00,
2013-07-19 01:48:00,72.1,47.8,29.87,SSE,162,1.0,1.0,42,0.00,,CLR,0.00,VWS V14.01,2013-07-19 08:48:00,
2013-07-19 01:53:00,71.9,47.6,29.86,SSE,163,2.0,2.0,42,0.00,,CLR,0.00,VWS V14.01,2013-07-19 08:53:00,
2013-07-19 01:58:00,71.7,47.4,29.86,SSE,163,0.0,0.0,42,0.00,,CLR,0.00,VWS V14.01,2013-07-19 08:58:00,
2013-07-19 02:00:00,67.8,52.5,29.98,SE,135,2.0,7.0,58,0.00,,CLR,0.00,VWS V14.01,2013-07-19 09:00:00,
2013-07-19 02:03:00,71.6,47.9,29.86,SSE,162,1.0,1.0,43,0.00,,CLR,0.00,VWS V14.01,2013-07-19 09:03:00,
2013-07-19 02:08:00,71.5,47.8,29.86,SSE,162,1.0,1.0,43,0.00,,CLR,0.00,VWS V14.01,2013-07-19 09:08:00,
2013-07-19 02:13:00,71.3,47.7,29.86,SSE,162,2.0,2.0,43,0.00,,CLR,0.00,VWS V14.01,2013-07-19 09:13:00,
2013-07-19 02:18:00,71.3,47.7,29.86,SSE,162,2.0,2.0,43,0.00,,CLR,0.00,VWS V14.01,2013-07-19 09:18:00,
2013-07-19 02:24:00,71.2,47.6,29.86,SSE,162,2.0,2.0,43,0.00,,CLR,0.00,VWS V14.01,2013-07-19 09:24:00,
2013-07-19 02:29:00,71.0,47.4,29.87,SSE,162,0.0,0.0,43,0.00,,CLR,0.00,VWS V14.01,2013-07-19 09:29:00,
2013-07-19 02:34:00,70.7,47.1,29.86,SSE,162,0.0,0.0,43,0.00,,CLR,0.00,VWS V14.01,2013-07-19 09:34:00,
2013-07-19 02:39:00,70.6,47.7,29.86,SSE,162,1.0,1.0,44,0.00,,CLR,0.00,VWS V14.01,2013-07-19 09:39:00,
2013-07-19 02:44:00,70.4,47.5,29.86,SSE,162,1.0,1.0,44,0.00,,CLR,0.00,VWS V14.01,2013-07-19 09:44:00,
2013-07-19 02:49:00,70.3,47.4,29.86,SSE,162,2.0,2.0,44,0.00,,CLR,0.00,VWS V14.01,2013-07-19 09:49:00,
2013-07-19 02:54:00,70.1,47.2,29.86,SSE,162,1.0,1.0,44,0.00,,CLR,0.00,VWS V14.01,2013-07-19 09:54:00,
2013-07-19 02:59:00,70.1,47.2,29.86,SSE,162,2.0,2.0,44,0.00,,CLR,0.00,VWS V14.01,2013-07-19 09:59:00,
2013-07-19 03:00:00,65.0,52.5,29.98,SE,135,3.0,8.0,64,0.00,,CLR,0.00,VWS V14.01,2013-07-19 10:00:00,
2013-07-19 03:04:00,70.1,47.2,29.86,SSE,162,1.0,1.0,44,0.00,,CLR,0.00,VWS V14.01,2013-07-19 10:04:00,
2013-07-19 03:09:00,70.0,47.7,29.86,SSE,162,1.0,1.0,45,0.00,,CLR,0.00,VWS V14.01,2013-07-19 10:09:00,
2013-07-19 03:14:00,69.9,47.6,29.86,SSE,162,0.0,0.0,45,0.00,,CLR,0.00,VWS V14.01,2013-07-19 10:14:00,
2013-07-19 03:19:00,69.8,47.5,29.86,SSE,162,1.0,1.0,45,0.00,,CLR,0.00,VWS V14.01,2013-07-19 10:19:00,
2013-07-19 03:25:00,69.5,47.2,29.86,SSE,162,0.0,0.0,45,0.00,,CLR,0.00,VWS V14.01,2013-07-19 10:25:00,
2013-07-19 03:30:00,69.3,47.1,29.86,SSE,162,0.0,0.0,45,0.00,,CLR,0.00,VWS V14.01,2013-07-19 10:30:00,
2013-07-19 03:35:00,69.3,47.7,29.86,SSE,162,0.0,0.0,46,0.00,,CLR,0.00,VWS V14.01,2013-07-19 10:35:00,
2013-07-19 03:40:00,69.0,48.0,29.86,SSE,162,0.0,0.0,47,0.00,,CLR,0.00,VWS V14.01,2013-07-19 10:40:00,
2013-07-19 03:45:00,68.8,47.8,29.86,SSE,162,0.0,0.0,47,0.00,,CLR,0.00,VWS V14.01,2013-07-19 10:45:00,
2013-07-19 03:50:00,68.6,47.6,29.86,SSE,162,0.0,0.0,47,0.00,,CLR,0.00,VWS V14.01,2013-07-19 10:50:00,
2013-07-19 03:55:00,68.4,48.0,29.86,SSE,162,1.0,1.0,48,0.00,,CLR,0.00,VWS V14.01,2013-07-19 10:55:00,
2013-07-19 04:00:00,68.0,47.6,29.86,SSE,162,1.0,1.0,48,0.00,,CLR,0.00,VWS V14.01,2013-07-19 11:00:00,
2013-07-19 04:05:00,67.6,46.7,29.86,SSE,162,0.0,0.0,47,0.00,,CLR,0.00,VWS V14.01,2013-07-19 11:05:00,
2013-07-19 04:10:00,67.2,46.9,29.86,SSE,162,1.0,1.0,48,0.00,,CLR,0.00,VWS V14.01,2013-07-19 11:10:00,
2013-07-19 04:16:00,67.0,46.7,29.86,SSE,162,1.0,1.0,48,0.00,,CLR,0.00,VWS V14.01,2013-07-19 11:16:00,
2013-07-19 04:21:00,66.1,46.4,29.87,SSE,162,0.0,0.0,49,0.00,,CLR,0.00,VWS V14.01,2013-07-19 11:21:00,
2013-07-19 04:26:00,65.3,46.2,29.87,SSE,162,0.0,0.0,50,0.00,,CLR,0.00,VWS V14.01,2013-07-19 11:26:00,
2013-07-19 04:31:00,64.5,45.5,29.87,SSE,162,0.0,0.0,50,0.00,,CLR,0.00,VWS V14.01,2013-07-19 11:31:00,
2013-07-19 04:36:00,63.7,45.8,29.87,SSE,162,0.0,0.0,52,0.00,,CLR,0.00,VWS V14.01,2013-07-19 11:36:00,
2013-07-19 04:41:00,63.0,45.6,29.87,SSE,162,0.0,0.0,53,0.00,,CLR,0.00,VWS V14.01,2013-07-19 11:41:00,
2013-07-19 04:46:00,62.6,45.7,29.87,SSE,162,0.0,0.0,54,0.00,,CLR,0.00,VWS V14.01,2013-07-19 11:46:00,
2013-07-19 04:51:00,62.4,46.0,29.87,SSE,162,0.0,0.0,55,0.00,,CLR,0.00,VWS V14.01,2013-07-19 11:51:00,
2013-07-19 04:56:00,62.3,46.0,29.87,SSE,162,0.0,0.0,55,0.00,,CLR,0.00,VWS V14.01,2013-07-19 11:56:00,
2013-07-19 05:00:00,61.0,51.2,30.00,SSE,158,1.0,3.0,70,0.00,,CLR,0.00,VWS V14.01,2013-07-19 12:00:00,
2013-07-19 05:01:00,62.2,46.3,29.87,SSE,162,0.0,0.0,56,0.00,,CLR,0.00,VWS V14.01,2013-07-19 12:01:00,
2013-07-19 05:06:00,62.0,46.1,29.87,SSE,162,0.0,0.0,56,0.00,,CLR,0.00,VWS V14.01,2013-07-19 12:06:00,
2013-07-19 05:12:00,61.8,46.0,29.88,SSE,162,0.0,0.0,56,0.00,,CLR,0.00,VWS V14.01,2013-07-19 12:12:00,
2013-07-19 05:17:00,61.6,46.2,29.87,SSE,162,0.0,0.0,57,0.00,,CLR,0.00,VWS V14.01,2013-07-19 12:17:00,
2013-07-19 05:22:00,61.5,46.6,29.87,SSE,162,0.0,0.0,58,0.00,,CLR,0.00,VWS V14.01,2013-07-19 12:22:00,
2013-07-19 05:27:00,61.5,46.6,29.87,SSE,162,0.0,0.0,58,0.00,,CLR,0.00,VWS V14.01,2013-07-19 12:27:00,
2013-07-19 05:32:00,61.6,47.2,29.87,SSE,162,0.0,0.0,59,0.00,,CLR,0.00,VWS V14.01,2013-07-19 12:32:00,
2013-07-19 05:37:00,61.8,47.8,29.87,SSE,162,0.0,0.0,60,0.00,,CLR,0.00,VWS V14.01,2013-07-19 12:37:00,
2013-07-19 05:42:00,61.9,47.9,29.87,SSE,162,0.0,0.0,60,0.00,,CLR,0.00,VWS V14.01,2013-07-19 12:42:00,
2013-07-19 05:48:00,61.9,47.9,29.88,SSE,162,0.0,0.0,60,0.00,,CLR,0.00,VWS V14.01,2013-07-19 12:48:00,
2013-07-19 05:53:00,61.9,47.4,29.88,SSE,162,0.0,0.0,59,0.00,,CLR,0.00,VWS V14.01,2013-07-19 12:53:00,
2013-07-19 05:58:00,61.7,46.8,29.88,SSE,162,1.0,1.0,58,0.00,,CLR,0.00,VWS V14.01,2013-07-19 12:58:00,
2013-07-19 06:00:00,58.1,49.9,30.01,SSE,158,1.0,4.0,74,0.00,,CLR,0.00,VWS V14.01,2013-07-19 13:00:00,
2013-07-19 06:03:00,61.4,46.5,29.88,SSE,162,1.0,1.0,58,0.00,,CLR,0.00,VWS V14.01,2013-07-19 13:03:00,
2013-07-19 06:08:00,61.1,46.7,29.89,SSE,162,0.0,0.0,59,0.00,,CLR,0.00,VWS V14.01,2013-07-19 13:08:00,
2013-07-19 06:13:00,60.8,46.8,29.88,SSE,162,0.0,0.0,60,0.00,,CLR,0.00,VWS V14.01,2013-07-19 13:13:00,
2013-07-19 06:18:00,60.6,46.7,29.89,SSE,162,0.0,0.0,60,0.00,,CLR,0.00,VWS V14.01,2013-07-19 13:18:00,
2013-07-19 06:23:00,60.5,46.6,29.89,SSE,162,0.0,0.0,60,0.00,,CLR,0.00,VWS V14.01,2013-07-19 13:23:00,
2013-07-19 06:26:00,60.5,46.1,29.89,SSE,162,1.0,1.0,59,0.00,,CLR,0.00,VWS V14.01,2013-07-19 13:26:00,
2013-07-19 06:31:00,60.5,46.6,29.89,SSE,162,2.0,2.0,60,0.00,,CLR,0.00,VWS V14.01,2013-07-19 13:31:00,
2013-07-19 06:37:00,60.6,46.7,29.89,SSE,162,1.0,1.0,60,0.00,,CLR,0.00,VWS V14.01,2013-07-19 13:37:00,
2013-07-19 06:42:00,60.7,46.8,29.89,SSE,162,2.0,2.0,60,0.00,,CLR,0.00,VWS V14.01,2013-07-19 13:42:00,
2013-07-19 06:47:00,60.8,46.8,29.89,SSE,162,1.0,1.0,60,0.00,,CLR,0.00,VWS V14.01,2013-07-19 13:47:00,
2013-07-19 06:52:00,61.0,47.5,29.89,SSE,162,3.0,3.0,61,0.00,,CLR,0.00,VWS V14.01,2013-07-19 13:52:00,
2013-07-19 06:57:00,61.4,47.8,29.89,SSE,162,0.0,0.0,61,0.00,,CLR,0.00,VWS V14.01,2013-07-19 13:57:00,
2013-07-19 07:00:00,62.2,50.3,30.01,SSE,158,0.0,3.0,65,0.00,,CLR,0.00,VWS V14.01,2013-07-19 14:00:00,
2013-07-19 07:02:00,61.8,47.8,29.89,SSE,162,2.0,2.0,60,0.00,,CLR,0.00,VWS V14.01,2013-07-19 14:02:00,
2013-07-19 07:07:00,62.1,48.1,29.89,SSE,162,1.0,1.0,60,0.00,,CLR,0.00,VWS V14.01,2013-07-19 14:07:00,
2013-07-19 07:12:00,62.5,48.4,29.89,SSE,162,1.0,1.0,60,0.00,,CLR,0.00,VWS V14.01,2013-07-19 14:12:00,
2013-07-19 07:17:00,63.1,48.6,29.89,SSE,162,0.0,0.0,59,0.00,,CLR,0.00,VWS V14.01,2013-07-19 14:17:00,
2013-07-19 07:22:00,63.8,48.8,29.89,SSE,162,1.0,1.0,58,0.00,,CLR,0.00,VWS V14.01,2013-07-19 14:22:00,
2013-07-19 07:27:00,64.4,49.3,29.89,SSE,162,1.0,1.0,58,0.00,,CLR,0.00,VWS V14.01,2013-07-19 14:27:00,
2013-07-19 07:32:00,65.0,49.4,29.89,SSE,162,2.0,2.0,57,0.00,,CLR,0.00,VWS V14.01,2013-07-19 14:32:00,
2013-07-19 07:37:00,65.4,49.8,29.90,SSE,162,0.0,0.0,57,0.00,,CLR,0.00,VWS V14.01,2013-07-19 14:37:00,
2013-07-19 07:42:00,65.8,49.7,29.90,SSE,162,2.0,2.0,56,0.00,,CLR,0.00,VWS V14.01,2013-07-19 14:42:00,
2013-07-19 07:48:00,66.4,49.8,29.90,SSE,162,1.0,1.0,55,0.00,,CLR,0.00,VWS V14.01,2013-07-19 14:48:00,
2013-07-19 07:53:00,67.3,50.1,29.90,SSE,162,0.0,0.0,54,0.00,,CLR,0.00,VWS V14.01,2013-07-19 14:53:00,
2013-07-19 07:58:00,68.0,49.7,29.89,SSE,162,1.0,1.0,52,0.00,,CLR,0.00,VWS V14.01,2013-07-19 14:58:00,
2013-07-19 08:00:00,67.7,50.0,30.01,North,0,1.0,3.0,53,0.00,,CLR,0.00,VWS V14.01,2013-07-19 15:00:00,
2013-07-19 08:03:00,68.5,50.2,29.90,SSE,162,0.0,0.0,52,0.00,,CLR,0.00,VWS V14.01,2013-07-19 15:03:00,
2013-07-19 08:08:00,69.2,49.8,29.90,SSE,162,3.0,3.0,50,0.00,,CLR,0.00,VWS V14.01,2013-07-19 15:08:00,
2013-07-19 08:13:00,69.6,49.1,29.89,SSE,157,2.0,2.0,48,0.00,,CLR,0.00,VWS V14.01,2013-07-19 15:13:00,
2013-07-19 08:18:00,69.9,49.3,29.89,SSE,167,0.0,0.0,48,0.00,,CLR,0.00,VWS V14.01,2013-07-19 15:18:00,
2013-07-19 08:23:00,70.1,49.5,29.89,SSE,156,1.0,1.0,48,0.00,,CLR,0.00,VWS V14.01,2013-07-19 15:23:00,
2013-07-19 08:28:00,70.7,48.9,29.89,SSE,156,2.0,2.0,46,0.00,,CLR,0.00,VWS V14.01,2013-07-19 15:28:00,
2013-07-19 08:34:00,71.3,48.9,29.90,SSE,155,2.0,2.0,45,0.00,,CLR,0.00,VWS V14.01,2013-07-19 15:34:00,
2013-07-19 08:39:00,71.9,48.8,29.89,SSE,153,3.0,3.0,44,0.00,,CLR,0.00,VWS V14.01,2013-07-19 15:39:00,
2013-07-19 08:44:00,72.3,49.2,29.89,SSE,153,0.0,0.0,44,0.00,,CLR,0.00,VWS V14.01,2013-07-19 15:44:00,
2013-07-19 08:49:00,72.8,48.4,29.89,SSE,150,1.0,1.0,42,0.00,,CLR,0.00,VWS V14.01,2013-07-19 15:49:00,
2013-07-19 08:54:00,73.4,48.9,29.89,SSE,148,2.0,2.0,42,0.00,,CLR,0.00,VWS V14.01,2013-07-19 15:54:00,
2013-07-19 08:59:00,73.9,49.4,29.89,SSE,148,1.0,1.0,42,0.00,,CLR,0.00,VWS V14.01,2013-07-19 15:59:00,
2013-07-19 09:00:00,73.0,45.2,30.00,East,90,1.0,4.0,37,0.00,,CLR,0.00,VWS V14.01,2013-07-19 16:00:00,
2013-07-19 09:04:00,74.5,49.3,29.89,SSE,148,0.0,0.0,41,0.00,,CLR,0.00,VWS V14.01,2013-07-19 16:04:00,
2013-07-19 09:09:00,75.1,49.2,29.89,SSE,148,1.0,1.0,40,0.00,,CLR,0.00,VWS V14.01,2013-07-19 16:09:00,
2013-07-19 09:14:00,75.9,48.5,29.89,SSE,148,0.0,0.0,38,0.00,,CLR,0.00,VWS V14.01,2013-07-19 16:14:00,
2013-07-19 09:19:00,76.9,47.9,29.89,SSE,148,1.0,1.0,36,0.00,,CLR,0.00,VWS V14.01,2013-07-19 16:19:00,
2013-07-19 09:24:00,77.2,46.7,29.89,SSE,148,3.0,3.0,34,0.00,,CLR,0.00,VWS V14.01,2013-07-19 16:24:00,
2013-07-19 09:29:00,77.1,46.6,29.89,SSE,148,1.0,1.0,34,0.00,,CLR,0.00,VWS V14.01,2013-07-19 16:29:00,
2013-07-19 09:34:00,77.2,46.7,29.89,SSE,151,0.0,0.0,34,0.00,,CLR,0.00,VWS V14.01,2013-07-19 16:34:00,
2013-07-19 09:39:00,78.5,47.0,29.89,SSE,152,3.0,3.0,33,0.00,,CLR,0.00,VWS V14.01,2013-07-19 16:39:00,
2013-07-19 09:44:00,78.7,47.2,29.89,SSE,152,1.0,1.0,33,0.00,,CLR,0.00,VWS V14.01,2013-07-19 16:44:00,
2013-07-19 09:49:00,79.5,47.9,29.89,SSE,152,2.0,2.0,33,0.00,,CLR,0.00,VWS V14.01,2013-07-19 16:49:00,
2013-07-19 09:55:00,79.8,48.2,29.89,WSW,239,0.0,0.0,33,0.00,,CLR,0.00,VWS V14.01,2013-07-19 16:55:00,
2013-07-19 10:00:00,80.2,47.7,29.88,SW,224,0.0,0.0,32,0.00,,CLR,0.00,VWS V14.01,2013-07-19 17:00:00,
2013-07-19 10:05:00,80.1,46.8,29.88,SW,220,0.0,0.0,31,0.00,,CLR,0.00,VWS V14.01,2013-07-19 17:05:00,
2013-07-19 10:10:00,80.9,49.1,29.88,SW,215,2.0,2.0,33,0.00,,CLR,0.00,VWS V14.01,2013-07-19 17:10:00,
2013-07-19 10:15:00,81.2,47.7,29.88,SW,217,1.0,1.0,31,0.00,,CLR,0.00,VWS V14.01,2013-07-19 17:15:00,
2013-07-19 10:20:00,81.1,46.8,29.88,SW,216,0.0,0.0,30,0.00,,CLR,0.00,VWS V14.01,2013-07-19 17:20:00,
2013-07-19 10:25:00,81.2,46.8,29.89,SW,219,0.0,0.0,30,0.00,,CLR,0.00,VWS V14.01,2013-07-19 17:25:00,
2013-07-19 10:30:00,81.7,46.4,29.88,SW,221,0.0,0.0,29,0.00,,CLR,0.00,VWS V14.01,2013-07-19 17:30:00,
2013-07-19 10:35:00,82.3,45.0,29.88,SW,217,3.0,3.0,27,0.00,,CLR,0.00,VWS V14.01,2013-07-19 17:35:00,
2013-07-19 10:40:00,82.7,45.3,29.88,SW,214,2.0,2.0,27,0.00,,CLR,0.00,VWS V14.01,2013-07-19 17:40:00,
2013-07-19 10:41:00,82.8,45.4,29.88,SSW,212,3.0,3.0,27,0.00,,CLR,0.00,VWS V14.01,2013-07-19 17:41:00,
2013-07-19 10:46:00,83.3,45.9,29.88,South,181,1.0,1.0,27,0.00,,CLR,0.00,VWS V14.01,2013-07-19 17:46:00,
2013-07-19 10:51:00,84.4,45.8,29.88,SSW,192,3.0,3.0,26,0.00,,CLR,0.00,VWS V14.01,2013-07-19 17:51:00,
2013-07-19 10:56:00,84.3,46.7,29.88,SW,236,4.0,4.0,27,0.00,,CLR,0.00,VWS V14.01,2013-07-19 17:56:00,
2013-07-19 11:00:00,83.3,45.9,29.98,NW,315,3.0,10.0,27,0.00,,CLR,0.00,VWS V14.01,2013-07-19 18:00:00,
2013-07-19 11:01:00,84.5,46.9,29.88,SW,217,3.0,3.0,27,0.00,,CLR,0.00,VWS V14.01,2013-07-19 18:01:00,
2013-07-19 11:06:00,84.5,46.9,29.88,South,186,1.0,1.0,27,0.00,,CLR,0.00,VWS V14.01,2013-07-19 18:06:00,
2013-07-19 11:11:00,84.7,47.1,29.88,WSW,248,0.0,0.0,27,0.00,,CLR,0.00,VWS V14.01,2013-07-19 18:11:00,
2013-07-19 11:17:00,85.9,47.1,29.88,SW,220,1.0,1.0,26,0.00,,CLR,0.00,VWS V14.01,2013-07-19 18:17:00,
2013-07-19 11:22:00,86.6,47.7,29.88,SW,220,3.0,3.0,26,0.00,,CLR,0.00,VWS V14.01,2013-07-19 18:22:00,
2013-07-19 11:27:00,86.9,47.9,29.88,SW,234,5.0,5.0,26,0.00,,CLR,0.00,VWS V14.01,2013-07-19 18:27:00,
2013-07-19 11:32:00,86.8,48.8,29.87,WSW,237,1.0,1.0,27,0.00,,CLR,0.00,VWS V14.01,2013-07-19 18:32:00,
2013-07-19 11:37:00,86.6,48.7,29.87,SW,219,7.0,7.0,27,0.00,,CLR,0.00,VWS V14.01,2013-07-19 18:37:00,
2013-07-19 11:42:00,86.7,48.8,29.87,SSE,150,2.0,2.0,27,0.00,,CLR,0.00,VWS V14.01,2013-07-19 18:42:00,
2013-07-19 11:47:00,87.3,49.3,29.87,SE,142,5.0,5.0,27,0.00,,CLR,0.00,VWS V14.01,2013-07-19 18:47:00,
2013-07-19 11:52:00,87.4,49.3,29.87,SSW,195,7.0,7.0,27,0.00,,CLR,0.00,VWS V14.01,2013-07-19 18:52:00,
2013-07-19 11:57:00,87.5,49.4,29.86,SW,218,3.0,3.0,27,0.00,,CLR,0.00,VWS V14.01,2013-07-19 18:57:00,
2013-07-19 12:00:00,85.9,45.0,29.97,West,270,4.0,9.0,24,0.00,,CLR,0.00,VWS V14.01,2013-07-19 19:00:00,
2013-07-19 12:02:00,87.9,49.8,29.86,South,181,8.0,8.0,27,0.00,,CLR,0.00,VWS V14.01,2013-07-19 19:02:00,
2013-07-19 12:07:00,88.1,50.0,29.86,North,7,4.0,4.0,27,0.00,,CLR,0.00,VWS V14.01,2013-07-19 19:07:00,
2013-07-19 12:12:00,88.7,47.3,29.86,NNW,336,5.0,5.0,24,0.00,,CLR,0.00,VWS V14.01,2013-07-19 19:12:00,
2013-07-19 12:18:00,89.3,47.8,29.86,WNW,283,6.0,6.0,24,0.00,,CLR,0.00,VWS V14.01,2013-07-19 19:18:00,
2013-07-19 12:23:00,89.3,47.8,29.86,West,269,4.0,4.0,24,0.00,,CLR,0.00,VWS V14.01,2013-07-19 19:23:00,
2013-07-19 12:28:00,89.5,48.0,29.86,WSW,252,2.0,2.0,24,0.00,,CLR,0.00,VWS V14.01,2013-07-19 19:28:00,
2013-07-19 12:33:00,89.7,48.2,29.86,WSW,249,7.0,7.0,24,0.00,,CLR,0.00,VWS V14.01,2013-07-19 19:33:00,
2013-07-19 12:38:00,89.6,48.1,29.86,SSW,211,3.0,3.0,24,0.00,,CLR,0.00,VWS V14.01,2013-07-19 19:38:00,
2013-07-19 12:43:00,90.2,48.6,29.86,WNW,299,3.0,3.0,24,0.00,,CLR,0.00,VWS V14.01,2013-07-19 19:43:00,
2013-07-19 12:48:00,91.3,49.5,29.86,South,180,1.0,1.0,24,0.00,,CLR,0.00,VWS V14.01,2013-07-19 19:48:00,
2013-07-19 12:53:00,91.5,49.7,29.85,SSW,205,5.0,5.0,24,0.00,,CLR,0.00,VWS V14.01,2013-07-19 19:53:00,
2013-07-19 12:58:00,91.6,48.6,29.85,WNW,283,7.0,7.0,23,0.00,,CLR,0.00,VWS V14.01,2013-07-19 19:58:00,
2013-07-19 13:00:00,89.2,47.7,29.95,West,270,4.0,12.0,24,0.00,,CLR,0.00,VWS V14.01,2013-07-19 20:00:00,
2013-07-19 13:03:00,91.3,47.2,29.85,SW,225,6.0,6.0,22,0.00,,CLR,0.00,VWS V14.01,2013-07-19 20:03:00,
2013-07-19 13:08:00,91.6,47.4,29.84,West,275,1.0,1.0,22,0.00,,CLR,0.00,VWS V14.01,2013-07-19 20:08:00,
2013-07-19 13:13:00,92.3,46.8,29.84,SW,224,4.0,4.0,21,0.00,,CLR,0.00,VWS V14.01,2013-07-19 20:13:00,
2013-07-19 13:19:00,92.4,46.8,29.84,WSW,256,8.0,8.0,21,0.00,,CLR,0.00,VWS V14.01,2013-07-19 20:19:00,
2013-07-19 13:24:00,92.1,45.3,29.84,SSW,198,2.0,2.0,20,0.00,,CLR,0.00,VWS V14.01,2013-07-19 20:24:00,
2013-07-19 13:29:00,92.6,45.7,29.84,West,263,5.0,5.0,20,0.00,,CLR,0.00,VWS V14.01,2013-07-19 20:29:00,
2013-07-19 13:34:00,92.9,44.6,29.83,SSW,211,2.0,2.0,19,0.00,,CLR,0.00,VWS V14.01,2013-07-19 20:34:00,
2013-07-19 13:39:00,92.7,44.5,29.83,WSW,252,4.0,4.0,19,0.00,,CLR,0.00,VWS V14.01,2013-07-19 20:39:00,
2013-07-19 13:44:00,92.8,44.5,29.83,West,264,1.0,1.0,19,0.00,,CLR,0.00,VWS V14.01,2013-07-19 20:44:00,
2013-07-19 13:49:00,93.5,45.1,29.83,WSW,256,1.0,1.0,19,0.00,,CLR,0.00,VWS V14.01,2013-07-19 20:49:00,
2013-07-19 13:54:00,93.6,45.2,29.83,WSW,239,5.0,5.0,19,0.00,,CLR,0.00,VWS V14.01,2013-07-19 20:54:00,
2013-07-19 13:59:00,93.8,43.9,29.82,WSW,253,2.0,2.0,18,0.00,,CLR,0.00,VWS V14.01,2013-07-19 20:59:00,
2013-07-19 14:00:00,91.8,40.8,29.92,WSW,248,4.0,13.0,17,0.00,,CLR,0.00,VWS V14.01,2013-07-19 21:00:00,
2013-07-19 14:04:00,94.4,45.8,29.82,SW,231,6.0,6.0,19,0.00,,CLR,0.00,VWS V14.01,2013-07-19 21:04:00,
2013-07-19 14:09:00,94.8,46.2,29.82,WSW,250,3.0,3.0,19,0.00,,CLR,0.00,VWS V14.01,2013-07-19 21:09:00,
2013-07-19 14:14:00,95.4,45.2,29.81,WSW,244,7.0,7.0,18,0.00,,CLR,0.00,VWS V14.01,2013-07-19 21:14:00,
2013-07-19 14:19:00,95.9,44.1,29.81,WSW,257,3.0,3.0,17,0.00,,CLR,0.00,VWS V14.01,2013-07-19 21:19:00,
2013-07-19 14:24:00,95.6,46.8,29.81,NW,312,5.0,5.0,19,0.00,,CLR,0.00,VWS V14.01,2013-07-19 21:24:00,
2013-07-19 14:29:00,96.0,44.2,29.81,West,264,2.0,2.0,17,0.00,,CLR,0.00,VWS V14.01,2013-07-19 21:29:00,
2013-07-19 14:35:00,96.8,44.8,29.81,West,278,2.0,2.0,17,0.00,,CLR,0.00,VWS V14.01,2013-07-19 21:35:00,
2013-07-19 14:40:00,97.0,45.0,29.80,WSW,239,2.0,2.0,17,0.00,,CLR,0.00,VWS V14.01,2013-07-19 21:40:00,
2013-07-19 14:45:00,97.5,45.4,29.80,WSW,256,3.0,3.0,17,0.00,,CLR,0.00,VWS V14.01,2013-07-19 21:45:00,
2013-07-19 14:50:00,96.7,44.8,29.80,SW,231,2.0,2.0,17,0.00,,CLR,0.00,VWS V14.01,2013-07-19 21:50:00,
2013-07-19 14:55:00,96.7,46.3,29.80,SW,227,3.0,3.0,18,0.00,,CLR,0.00,VWS V14.01,2013-07-19 21:55:00,
2013-07-19 15:00:00,96.9,44.9,29.80,West,262,6.0,6.0,17,0.00,,CLR,0.00,VWS V14.01,2013-07-19 22:00:00,
2013-07-19 15:05:00,97.0,45.0,29.80,SSW,207,5.0,5.0,17,0.00,,CLR,0.00,VWS V14.01,2013-07-19 22:05:00,
2013-07-19 15:10:00,96.9,44.9,29.80,South,187,3.0,3.0,17,0.00,,CLR,0.00,VWS V14.01,2013-07-19 22:10:00,
2013-07-19 15:15:00,97.0,43.4,29.79,SSW,207,3.0,3.0,16,0.00,,CLR,0.00,VWS V14.01,2013-07-19 22:15:00,
2013-07-19 15:20:00,97.1,45.1,29.79,WNW,284,4.0,4.0,17,0.00,,CLR,0.00,VWS V14.01,2013-07-19 22:20:00,
2013-07-19 15:25:00,97.0,43.4,29.79,WNW,288,2.0,2.0,16,0.00,,CLR,0.00,VWS V14.01,2013-07-19 22:25:00,
2013-07-19 15:30:00,97.1,45.1,29.79,SW,218,7.0,7.0,17,0.00,,CLR,0.00,VWS V14.01,2013-07-19 22:30:00,
2013-07-19 15:36:00,97.2,43.6,29.79,WSW,245,0.0,0.0,16,0.00,,CLR,0.00,VWS V14.01,2013-07-19 22:36:00,
2013-07-19 15:41:00,97.5,45.4,29.78,SSW,199,6.0,6.0,17,0.00,,CLR,0.00,VWS V14.01,2013-07-19 22:41:00,
2013-07-19 15:46:00,97.7,47.1,29.78,WSW,258,6.0,6.0,18,0.00,,CLR,0.00,VWS V14.01,2013-07-19 22:46:00,
2013-07-19 15:51:00,97.5,45.4,29.78,SW,219,5.0,5.0,17,0.00,,CLR,0.00,VWS V14.01,2013-07-19 22:51:00,
2013-07-19 15:56:00,97.2,45.2,29.78,SW,226,1.0,1.0,17,0.00,,CLR,0.00,VWS V14.01,2013-07-19 22:56:00,
2013-07-19 16:00:00,96.5,22.5,29.89,West,270,4.0,10.0,7,0.00,,CLR,0.00,VWS V14.01,2013-07-19 23:00:00,
2013-07-19 16:01:00,97.3,45.2,29.78,SSW,208,6.0,6.0,17,0.00,,CLR,0.00,VWS V14.01,2013-07-19 23:01:00,
2013-07-19 16:07:00,97.5,45.4,29.78,SW,234,5.0,5.0,17,0.00,,CLR,0.00,VWS V14.01,2013-07-19 23:07:00,
2013-07-19 16:12:00,97.6,45.5,29.77,SSW,207,5.0,5.0,17,0.00,,CLR,0.00,VWS V14.01,2013-07-19 23:12:00,
2013-07-19 16:17:00,97.5,45.4,29.77,SW,218,5.0,5.0,17,0.00,,CLR,0.00,VWS V14.01,2013-07-19 23:17:00,
2013-07-19 16:22:00,97.8,45.7,29.77,South,177,3.0,3.0,17,0.00,,CLR,0.00,VWS V14.01,2013-07-19 23:22:00,
2013-07-19 16:27:00,97.7,42.3,29.77,WSW,243,4.0,4.0,15,0.00,,CLR,0.00,VWS V14.01,2013-07-19 23:27:00,
2013-07-19 16:32:00,97.9,42.5,29.76,South,184,8.0,8.0,15,0.00,,CLR,0.00,VWS V14.01,2013-07-19 23:32:00,
2013-07-19 16:37:00,98.1,42.6,29.76,SSW,207,5.0,5.0,15,0.00,,CLR,0.00,VWS V14.01,2013-07-19 23:37:00,
2013-07-19 16:42:00,98.7,43.1,29.76,SSW,208,3.0,3.0,15,0.00,,CLR,0.00,VWS V14.01,2013-07-19 23:42:00,
2013-07-19 16:47:00,98.9,39.5,29.76,SSW,192,2.0,2.0,13,0.00,,CLR,0.00,VWS V14.01,2013-07-19 23:47:00,
2013-07-19 16:53:00,98.9,35.3,29.76,SSW,211,2.0,2.0,11,0.00,,CLR,0.00,VWS V14.01,2013-07-19 23:53:00,
2013-07-19 16:58:00,98.6,39.3,29.76,SSW,195,5.0,5.0,13,0.00,,CLR,0.00,VWS V14.01,2013-07-19 23:58:00,
2013-07-19 17:00:00,97.2,31.6,29.87,SSW,202,3.0,9.0,10,0.00,,CLR,0.00,VWS V14.01,2013-07-20 00:00:00,
2013-07-19 17:03:00,98.8,39.5,29.75,SSW,200,1.0,1.0,13,0.00,,CLR,0.00,VWS V14.01,2013-07-20 00:03:00,
2013-07-19 17:08:00,99.1,39.7,29.75,WSW,244,3.0,3.0,13,0.00,,CLR,0.00,VWS V14.01,2013-07-20 00:08:00,
2013-07-19 17:13:00,98.9,39.5,29.75,SW,217,1.0,1.0,13,0.00,,CLR,0.00,VWS V14.01,2013-07-20 00:13:00,
2013-07-19 17:18:00,99.2,39.8,29.75,SW,221,4.0,4.0,13,0.00,,CLR,0.00,VWS V14.01,2013-07-20 00:18:00,
2013-07-19 17:23:00,99.2,39.8,29.74,South,184,4.0,4.0,13,0.00,,CLR,0.00,VWS V14.01,2013-07-20 00:23:00,
2013-07-19 17:28:00,99.2,39.8,29.74,WSW,244,3.0,3.0,13,0.00,,CLR,0.00,VWS V14.01,2013-07-20 00:28:00,
2013-07-19 17:33:00,99.2,41.7,29.74,SW,215,6.0,6.0,14,0.00,,CLR,0.00,VWS V14.01,2013-07-20 00:33:00,
2013-07-19 17:38:00,98.8,39.5,29.74,SSW,211,7.0,7.0,13,0.00,,CLR,0.00,VWS V14.01,2013-07-20 00:38:00,
2013-07-19 17:43:00,98.7,43.1,29.74,SSW,201,8.0,8.0,15,0.00,,CLR,0.00,VWS V14.01,2013-07-20 00:43:00,
2013-07-19 17:48:00,98.7,43.1,29.74,SW,221,8.0,8.0,15,0.00,,CLR,0.00,VWS V14.01,2013-07-20 00:48:00,
2013-07-19 17:53:00,98.3,42.8,29.74,SW,230,4.0,4.0,15,0.00,,CLR,0.00,VWS V14.01,2013-07-20 00:53:00,
2013-07-19 17:58:00,98.3,44.5,29.74,SSW,211,5.0,5.0,16,0.00,,CLR,0.00,VWS V14.01,2013-07-20 00:58:00,
2013-07-19 18:00:00,98.3,46.0,29.73,SW,235,4.0,4.0,17,0.00,,CLR,0.00,VWS V14.01,2013-07-20 01:00:00,
2013-07-19 18:03:00,98.4,46.1,29.73,SW,234,7.0,7.0,17,0.00,,CLR,0.00,VWS V14.01,2013-07-20 01:03:00,
2013-07-19 18:09:00,98.1,44.3,29.73,SW,233,6.0,6.0,16,0.00,,CLR,0.00,VWS V14.01,2013-07-20 01:09:00,
2013-07-19 18:14:00,98.1,42.6,29.73,SW,224,5.0,5.0,15,0.00,,CLR,0.00,VWS V14.01,2013-07-20 01:14:00,
2013-07-19 18:19:00,98.3,42.8,29.73,SW,230,5.0,5.0,15,0.00,,CLR,0.00,VWS V14.01,2013-07-20 01:19:00,
2013-07-19 18:24:00,98.4,42.8,29.73,SW,221,5.0,5.0,15,0.00,,CLR,0.00,VWS V14.01,2013-07-20 01:24:00,
2013-07-19 18:29:00,98.3,42.8,29.73,WSW,239,5.0,5.0,15,0.00,,CLR,0.00,VWS V14.01,2013-07-20 01:29:00,
2013-07-19 18:34:00,98.1,45.9,29.73,SW,228,3.0,3.0,17,0.00,,CLR,0.00,VWS V14.01,2013-07-20 01:34:00,
2013-07-19 18:39:00,97.8,50.0,29.73,WSW,242,5.0,5.0,20,0.00,,CLR,0.00,VWS V14.01,2013-07-20 01:39:00,
2013-07-19 18:44:00,97.3,50.9,29.73,SW,232,4.0,4.0,21,0.00,,CLR,0.00,VWS V14.01,2013-07-20 01:44:00,
2013-07-19 18:49:00,96.9,49.2,29.73,SW,232,10.0,10.0,20,0.00,,CLR,0.00,VWS V14.01,2013-07-20 01:49:00,
2013-07-19 18:54:00,96.6,49.0,29.73,WSW,242,5.0,5.0,20,0.00,,CLR,0.00,VWS V14.01,2013-07-20 01:54:00,
2013-07-19 18:59:00,96.4,50.1,29.73,SW,229,8.0,8.0,21,0.00,,CLR,0.00,VWS V14.01,2013-07-20 01:59:00,
2013-07-19 19:00:00,96.4,50.1,29.73,SW,227,6.0,6.0,21,0.00,,CLR,0.00,VWS V14.01,2013-07-20 02:00:00,
2013-07-19 19:04:00,96.0,51.1,29.73,SW,223,8.0,8.0,22,0.00,,CLR,0.00,VWS V14.01,2013-07-20 02:04:00,
2013-07-19 19:10:00,95.5,50.7,29.73,SSW,204,6.0,6.0,22,0.00,,CLR,0.00,VWS V14.01,2013-07-20 02:10:00,
2013-07-19 19:15:00,95.2,50.4,29.73,SSW,207,4.0,4.0,22,0.00,,CLR,0.00,VWS V14.01,2013-07-20 02:15:00,
2013-07-19 19:20:00,95.0,50.2,29.73,SW,225,4.0,4.0,22,0.00,,CLR,0.00,VWS V14.01,2013-07-20 02:20:00,
2013-07-19 19:25:00,94.8,50.1,29.73,SW,214,4.0,4.0,22,0.00,,CLR,0.00,VWS V14.01,2013-07-20 02:25:00,
2013-07-19 19:30:00,94.7,48.7,29.73,SW,218,2.0,2.0,21,0.00,,CLR,0.00,VWS V14.01,2013-07-20 02:30:00,
2013-07-19 19:35:00,94.5,48.6,29.73,SW,219,6.0,6.0,21,0.00,,CLR,0.00,VWS V14.01,2013-07-20 02:35:00,
2013-07-19 19:40:00,94.2,48.3,29.73,SW,217,5.0,5.0,21,0.00,,CLR,0.00,VWS V14.01,2013-07-20 02:40:00,
2013-07-19 19:45:00,94.1,48.2,29.73,SW,219,2.0,2.0,21,0.00,,CLR,0.00,VWS V14.01,2013-07-20 02:45:00,
2013-07-19 19:50:00,93.9,48.1,29.73,SW,218,3.0,3.0,21,0.00,,CLR,0.00,VWS V14.01,2013-07-20 02:50:00,
2013-07-19 19:55:00,93.8,48.0,29.73,SW,218,0.0,0.0,21,0.00,,CLR,0.00,VWS V14.01,2013-07-20 02:55:00,
2013-07-19 20:00:00,93.5,47.8,29.73,SW,218,1.0,1.0,21,0.00,,CLR,0.00,VWS V14.01,2013-07-20 03:00:00,
2013-07-19 20:06:00,93.2,47.5,29.73,SW,218,1.0,1.0,21,0.00,,CLR,0.00,VWS V14.01,2013-07-20 03:06:00,
2013-07-19 20:11:00,93.0,48.6,29.73,SW,218,3.0,3.0,22,0.00,,CLR,0.00,VWS V14.01,2013-07-20 03:11:00,
2013-07-19 20:16:00,92.7,48.3,29.73,SW,218,1.0,1.0,22,0.00,,CLR,0.00,VWS V14.01,2013-07-20 03:16:00,
2013-07-19 20:21:00,92.5,48.2,29.73,SW,218,1.0,1.0,22,0.00,,CLR,0.00,VWS V14.01,2013-07-20 03:21:00,
2013-07-19 20:26:00,92.1,46.6,29.73,SW,218,3.0,3.0,21,0.00,,CLR,0.00,VWS V14.01,2013-07-20 03:26:00,
2013-07-19 20:31:00,91.9,46.4,29.74,SW,218,2.0,2.0,21,0.00,,CLR,0.00,VWS V14.01,2013-07-20 03:31:00,
2013-07-19 20:36:00,91.5,47.3,29.74,SW,218,0.0,0.0,22,0.00,,CLR,0.00,VWS V14.01,2013-07-20 03:36:00,
2013-07-19 20:41:00,91.2,47.1,29.74,SW,218,2.0,2.0,22,0.00,,CLR,0.00,VWS V14.01,2013-07-20 03:41:00,
2013-07-19 20:46:00,90.9,46.8,29.74,SW,218,1.0,1.0,22,0.00,,CLR,0.00,VWS V14.01,2013-07-20 03:46:00,
2013-07-19 20:51:00,90.7,46.7,29.74,SW,218,0.0,0.0,22,0.00,,CLR,0.00,VWS V14.01,2013-07-20 03:51:00,
2013-07-19 20:56:00,90.4,46.4,29.74,SW,218,1.0,1.0,22,0.00,,CLR,0.00,VWS V14.01,2013-07-20 03:56:00,
2013-07-19 21:00:00,90.2,47.4,29.74,SW,218,1.0,1.0,23,0.00,,CLR,0.00,VWS V14.01,2013-07-20 04:00:00,
2013-07-19 21:01:00,90.1,47.3,29.74,SW,218,0.0,0.0,23,0.00,,CLR,0.00,VWS V14.01,2013-07-20 04:01:00,
2013-07-19 21:02:00,90.0,47.3,29.75,SW,218,1.0,1.0,23,0.00,,CLR,0.00,VWS V14.01,2013-07-20 04:02:00,
2013-07-19 21:07:00,89.5,48.0,29.74,SW,218,1.0,1.0,24,0.00,,CLR,0.00,VWS V14.01,2013-07-20 04:07:00,
2013-07-19 21:12:00,89.2,47.7,29.75,SW,218,0.0,0.0,24,0.00,,CLR,0.00,VWS V14.01,2013-07-20 04:12:00,
2013-07-19 21:18:00,88.8,48.5,29.75,SW,218,1.0,1.0,25,0.00,,CLR,0.00,VWS V14.01,2013-07-20 04:18:00,
2013-07-19 21:23:00,88.2,48.0,29.75,SW,218,1.0,1.0,25,0.00,,CLR,0.00,VWS V14.01,2013-07-20 04:23:00,
2013-07-19 21:28:00,87.7,49.6,29.75,SSW,198,2.0,2.0,27,0.00,,CLR,0.00,VWS V14.01,2013-07-20 04:28:00,
2013-07-19 21:33:00,87.2,49.2,29.75,SSW,198,1.0,1.0,27,0.00,,CLR,0.00,VWS V14.01,2013-07-20 04:33:00,
2013-07-19 21:38:00,86.7,48.8,29.76,SSW,198,0.0,0.0,27,0.00,,CLR,0.00,VWS V14.01,2013-07-20 04:38:00,
2013-07-19 21:43:00,86.2,49.3,29.76,SSW,197,3.0,3.0,28,0.00,,CLR,0.00,VWS V14.01,2013-07-20 04:43:00,
2013-07-19 21:48:00,85.8,49.0,29.76,SSW,195,2.0,2.0,28,0.00,,CLR,0.00,VWS V14.01,2013-07-20 04:48:00,
2013-07-19 21:53:00,85.4,49.6,29.76,South,177,3.0,3.0,29,0.00,,CLR,0.00,VWS V14.01,2013-07-20 04:53:00,
2013-07-19 21:58:00,85.0,49.2,29.76,South,173,2.0,2.0,29,0.00,,CLR,0.00,VWS V14.01,2013-07-20 04:58:00,
2013-07-19 22:00:00,84.9,49.1,29.76,South,173,2.0,2.0,29,0.00,,CLR,0.00,VWS V14.01,2013-07-20 05:00:00,
2013-07-19 22:03:00,84.6,48.9,29.76,South,173,2.0,2.0,29,0.00,,CLR,0.00,VWS V14.01,2013-07-20 05:03:00,
2013-07-19 22:08:00,84.3,49.5,29.76,South,173,2.0,2.0,30,0.00,,CLR,0.00,VWS V14.01,2013-07-20 05:08:00,
2013-07-19 22:13:00,83.9,49.2,29.76,South,172,1.0,1.0,30,0.00,,CLR,0.00,VWS V14.01,2013-07-20 05:13:00,
2013-07-19 22:18:00,83.7,49.0,29.76,South,171,1.0,1.0,30,0.00,,CLR,0.00,VWS V14.01,2013-07-20 05:18:00,
2013-07-19 22:24:00,83.7,49.0,29.76,South,171,2.0,2.0,30,0.00,,CLR,0.00,VWS V14.01,2013-07-20 05:24:00,
2013-07-19 22:29:00,83.7,49.0,29.76,SSE,167,1.0,1.0,30,0.00,,CLR,0.00,VWS V14.01,2013-07-20 05:29:00,
2013-07-19 22:34:00,83.8,49.1,29.76,SSE,151,1.0,1.0,30,0.00,,CLR,0.00,VWS V14.01,2013-07-20 05:34:00,
2013-07-19 22:39:00,83.8,49.1,29.76,SSE,149,0.0,0.0,30,0.00,,CLR,0.00,VWS V14.01,2013-07-20 05:39:00,
2013-07-19 22:44:00,83.6,48.9,29.76,SSE,149,2.0,2.0,30,0.00,,CLR,0.00,VWS V14.01,2013-07-20 05:44:00,
2013-07-19 22:49:00,83.3,48.7,29.76,SSE,149,2.0,2.0,30,0.00,,CLR,0.00,VWS V14.01,2013-07-20 05:49:00,
2013-07-19 22:54:00,83.0,49.3,29.76,SE,142,1.0,1.0,31,0.00,,CLR,0.00,VWS V14.01,2013-07-20 05:54:00,
2013-07-19 22:59:00,82.8,50.0,29.76,SE,136,1.0,1.0,32,0.00,,CLR,0.00,VWS V14.01,2013-07-20 05:59:00,
2013-07-19 23:00:00,82.8,50.0,29.76,SE,136,1.0,1.0,32,0.00,,CLR,0.00,VWS V14.01,2013-07-20 06:00:00,
2013-07-19 23:04:00,82.7,49.9,29.76,SE,125,3.0,3.0,32,0.00,,CLR,0.00,VWS V14.01,2013-07-20 06:04:00,
2013-07-19 23:09:00,82.5,50.5,29.76,ESE,120,1.0,1.0,33,0.00,,CLR,0.00,VWS V14.01,2013-07-20 06:09:00,
2013-07-19 23:14:00,82.4,50.4,29.76,ESE,120,3.0,3.0,33,0.00,,CLR,0.00,VWS V14.01,2013-07-20 06:14:00,
2013-07-19 23:19:00,82.2,50.3,29.76,ESE,119,2.0,2.0,33,0.00,,CLR,0.00,VWS V14.01,2013-07-20 06:19:00,
2013-07-19 23:25:00,82.0,50.1,29.76,ESE,118,6.0,6.0,33,0.00,,CLR,0.00,VWS V14.01,2013-07-20 06:25:00,
2013-07-19 23:29:00,81.8,49.9,29.76,ESE,116,2.0,2.0,33,0.00,,CLR,0.00,VWS V14.01,2013-07-20 06:29:00,
2013-07-19 23:35:00,81.7,50.6,29.76,ESE,116,3.0,3.0,34,0.00,,CLR,0.00,VWS V14.01,2013-07-20 06:35:00,
2013-07-19 23:40:00,81.5,50.5,29.76,ESE,115,3.0,3.0,34,0.00,,CLR,0.00,VWS V14.01,2013-07-20 06:40:00,
2013-07-19 23:45:00,81.3,50.3,29.76,ESE,115,1.0,1.0,34,0.00,,CLR,0.00,VWS V14.01,2013-07-20 06:45:00,
2013-07-19 23:50:00,81.0,50.8,29.76,ESE,115,3.0,3.0,35,0.00,,CLR,0.00,VWS V14.01,2013-07-20 06:50:00,
2013-07-19 23:55:00,80.8,50.6,29.76,ESE,115,2.0,2.0,35,0.00,,CLR,0.00,VWS V14.01,2013-07-20 06:55:00,